When you browse on this site, cookies collect data to enhance your experience and personalize the content and advertising you see.
Visit our Privacy Policy to learn more. By continuing to use the site, you agree to this use of cookies and data.
  • In United Kingdom
  • List of Countries
  • For 7 days
  • Water Temperature
  • Weather Map
  • Weather Widgets
  • user-avatar
    Login

    Hourly Weather Trinidad

    Today, 20 January, Monday

    Time Temperature Precipitation Wind Pressure Humidity
    00:00 +27°C° 0.2 mm 1 mps 742 mmHg 88%
    01:00 +27°C° 0.2 mm 1 mps 742 mmHg 88%
    02:00 +26°C° 0.2 mm 1 mps 742 mmHg 88%
    03:00 +26°C° 0.1 mm 1 mps 742 mmHg 88%
    04:00 +26°C° 0.1 mm 1 mps 742 mmHg 89%
    05:00 +25°C° 0.1 mm 1 mps 742 mmHg 89%
    06:00 +26°C° 0.3 mm 1 mps 742 mmHg 88%
    07:00 +27°C° 0.3 mm 1 mps 743 mmHg 87%
    08:00 +28°C° 0.3 mm 1 mps 744 mmHg 85%
    09:00 +30°C° 0.2 mm 2 mps 744 mmHg 79%
    10:00 +31°C° 0.2 mm 2 mps 744 mmHg 73%
    11:00 +34°C° 0.2 mm 2 mps 744 mmHg 66%
    12:00 +34°C° 1.6 mm 2 mps 743 mmHg 65%
    13:00 +35°C° 1.6 mm 2 mps 742 mmHg 64%
    14:00 +35°C° 1.6 mm 2 mps 742 mmHg 63%
    15:00 +35°C° 0 mm 2 mps 741 mmHg 63%
    16:00 +35°C° 0 mm 2 mps 740 mmHg 62%
    17:00 +35°C° 0 mm 2 mps 739 mmHg 62%
    18:00 +32°C° 0 mm 2 mps 740 mmHg 69%
    19:00 +30°C° 0 mm 1 mps 740 mmHg 77%
    20:00 +28°C° 0 mm 1 mps 740 mmHg 84%
    21:00 +28°C° 0 mm 1 mps 740 mmHg 85%
    22:00 +28°C° 0 mm 1 mps 741 mmHg 87%
    23:00 +28°C° 0 mm 1 mps 741 mmHg 88%

    Tomorrow, 21 January, Tuesday

    Time Temperature Precipitation Wind Pressure Humidity
    00:00 +27°C° 0 mm 1 mps 741 mmHg 89%
    01:00 +27°C° 0 mm 1 mps 741 mmHg 90%
    02:00 +27°C° 0 mm 1 mps 741 mmHg 91%
    03:00 +27°C° 0 mm 1 mps 740 mmHg 91%
    04:00 +27°C° 0 mm 1 mps 740 mmHg 91%
    05:00 +26°C° 0 mm 1 mps 740 mmHg 91%
    06:00 +27°C° 0 mm 2 mps 741 mmHg 87%
    07:00 +28°C° 0 mm 2 mps 742 mmHg 83%
    08:00 +29°C° 0 mm 2 mps 742 mmHg 79%
    09:00 +31°C° 0.2 mm 3 mps 742 mmHg 75%
    10:00 +33°C° 0.2 mm 3 mps 742 mmHg 70%
    11:00 +35°C° 0.2 mm 3 mps 742 mmHg 66%
    12:00 +35°C° 0.4 mm 3 mps 741 mmHg 63%
    13:00 +36°C° 0.4 mm 3 mps 740 mmHg 60%
    14:00 +36°C° 0.4 mm 3 mps 739 mmHg 58%
    15:00 +36°C° 0 mm 3 mps 739 mmHg 59%
    16:00 +36°C° 0 mm 3 mps 738 mmHg 61%
    17:00 +35°C° 0 mm 3 mps 737 mmHg 62%
    18:00 +34°C° 0 mm 2 mps 738 mmHg 70%
    19:00 +31°C° 0 mm 2 mps 738 mmHg 77%
    20:00 +29°C° 0 mm 2 mps 738 mmHg 84%
    21:00 +29°C° 0 mm 1 mps 739 mmHg 85%
    22:00 +29°C° 0 mm 1 mps 739 mmHg 86%
    23:00 +28°C° 0 mm 1 mps 740 mmHg 87%

    Day after tomorrow, 22 January, Wednesday

    Time Temperature Precipitation Wind Pressure Humidity
    00:00 +28°C° 0 mm 1 mps 740 mmHg 88%
    01:00 +28°C° 0 mm 1 mps 739 mmHg 88%
    02:00 +28°C° 0 mm 1 mps 739 mmHg 89%
    03:00 +27°C° 0 mm 1 mps 739 mmHg 89%
    04:00 +27°C° 0 mm 1 mps 740 mmHg 89%
    05:00 +27°C° 0 mm 1 mps 740 mmHg 89%
    06:00 +28°C° 0 mm 2 mps 740 mmHg 86%
    07:00 +29°C° 0 mm 2 mps 741 mmHg 83%
    08:00 +29°C° 0 mm 2 mps 741 mmHg 80%
    09:00 +31°C° 0.1 mm 3 mps 741 mmHg 73%
    10:00 +34°C° 0.1 mm 3 mps 741 mmHg 67%
    11:00 +35°C° 0.1 mm 3 mps 742 mmHg 60%
    12:00 +36°C° 0.4 mm 3 mps 741 mmHg 59%
    13:00 +36°C° 0.4 mm 3 mps 740 mmHg 58%
    14:00 +37°C° 0.4 mm 3 mps 740 mmHg 57%
    15:00 +36°C° 0.1 mm 2 mps 739 mmHg 59%
    16:00 +36°C° 0.1 mm 2 mps 738 mmHg 60%
    17:00 +36°C° 0.1 mm 2 mps 738 mmHg 61%
    18:00 +33°C° 0 mm 1 mps 738 mmHg 67%
    19:00 +31°C° 0 mm 1 mps 738 mmHg 73%
    20:00 +30°C° 0 mm 1 mps 739 mmHg 79%
    21:00 +27°C° 0.6 mm 0 mps 739 mmHg 83%
    22:00 +27°C° 0.6 mm 0 mps 740 mmHg 86%
    23:00 +26°C° 0.6 mm 0 mps 740 mmHg 90%

    23 January, Thursday

    Time Temperature Precipitation Wind Pressure Humidity
    00:00 +26°C° 0 mm 0 mps 740 mmHg 91%
    01:00 +28°C° 0 mm 1 mps 740 mmHg 92%
    02:00 +27°C° 0 mm 1 mps 740 mmHg 92%
    03:00 +27°C° 1.6 mm 2 mps 740 mmHg 93%
    04:00 +27°C° 1.6 mm 3 mps 740 mmHg 94%
    05:00 +26°C° 1.6 mm 4 mps 740 mmHg 95%
    06:00 +25°C° 4.7 mm 3 mps 741 mmHg 95%
    07:00 +25°C° 4.7 mm 2 mps 742 mmHg 95%
    08:00 +24°C° 4.7 mm 2 mps 742 mmHg 95%
    09:00 +24°C° 0.5 mm 2 mps 743 mmHg 95%
    10:00 +24°C° 0.5 mm 2 mps 743 mmHg 95%
    11:00 +24°C° 0.5 mm 2 mps 744 mmHg 95%
    12:00 +25°C° 0 mm 2 mps 743 mmHg 91%
    13:00 +26°C° 0 mm 1 mps 742 mmHg 87%
    14:00 +27°C° 0 mm 1 mps 741 mmHg 83%
    15:00 +27°C° 0 mm 1 mps 741 mmHg 82%
    16:00 +27°C° 0 mm 1 mps 740 mmHg 81%
    17:00 +27°C° 0 mm 1 mps 739 mmHg 80%
    18:00 +27°C° 0 mm 1 mps 740 mmHg 83%
    19:00 +26°C° 0 mm 1 mps 740 mmHg 86%
    20:00 +25°C° 0 mm 1 mps 740 mmHg 89%
    21:00 +25°C° 0 mm 1 mps 741 mmHg 90%
    22:00 +25°C° 0 mm 1 mps 741 mmHg 91%
    23:00 +25°C° 0 mm 1 mps 742 mmHg 91%

    24 January, Friday

    Time Temperature Precipitation Wind Pressure Humidity
    00:00 +24°C° 0 mm 1 mps 741 mmHg 92%
    01:00 +24°C° 0 mm 1 mps 741 mmHg 92%
    02:00 +24°C° 0 mm 1 mps 741 mmHg 93%
    03:00 +24°C° 0 mm 1 mps 741 mmHg 93%
    04:00 +24°C° 0 mm 1 mps 741 mmHg 93%
    05:00 +22°C° 0 mm 0 mps 741 mmHg 93%
    06:00 +22°C° 0 mm 0 mps 741 mmHg 90%
    07:00 +23°C° 0 mm 0 mps 742 mmHg 88%
    08:00 +23°C° 0 mm 0 mps 743 mmHg 85%
    09:00 +26°C° 0 mm 0 mps 743 mmHg 77%
    10:00 +30°C° 0 mm 1 mps 743 mmHg 68%
    11:00 +32°C° 0 mm 1 mps 743 mmHg 59%
    12:00 +34°C° 0 mm 1 mps 742 mmHg 56%
    13:00 +35°C° 0 mm 1 mps 742 mmHg 52%
    14:00 +36°C° 0 mm 1 mps 741 mmHg 49%
    15:00 +35°C° 0 mm 1 mps 740 mmHg 52%
    16:00 +35°C° 0 mm 1 mps 739 mmHg 54%
    17:00 +34°C° 0 mm 1 mps 738 mmHg 56%
    18:00 +32°C° 0 mm 1 mps 739 mmHg 63%
    19:00 +30°C° 0 mm 1 mps 740 mmHg 70%
    20:00 +28°C° 0 mm 1 mps 740 mmHg 78%
    21:00 +28°C° 0 mm 1 mps 741 mmHg 80%
    22:00 +27°C° 0 mm 1 mps 741 mmHg 82%
    23:00 +27°C° 0 mm 1 mps 742 mmHg 85%

    25 January, Saturday

    Time Temperature Precipitation Wind Pressure Humidity
    00:00 +27°C° 0 mm 1 mps 742 mmHg 86%
    01:00 +27°C° 0 mm 1 mps 741 mmHg 88%
    02:00 +26°C° 0 mm 1 mps 741 mmHg 90%
    03:00 +26°C° 0 mm 1 mps 741 mmHg 91%
    04:00 +26°C° 0 mm 1 mps 741 mmHg 91%
    05:00 +26°C° 0 mm 1 mps 741 mmHg 92%
    06:00 +27°C° 0.1 mm 1 mps 742 mmHg 89%
    07:00 +26°C° 0.1 mm 0 mps 743 mmHg 86%
    08:00 +27°C° 0.1 mm 0 mps 743 mmHg 83%
    09:00 +28°C° 0.8 mm 0 mps 743 mmHg 77%
    10:00 +32°C° 0.8 mm 1 mps 743 mmHg 71%
    11:00 +34°C° 0.8 mm 1 mps 743 mmHg 65%
    12:00 +35°C° 0 mm 1 mps 743 mmHg 59%
    13:00 +37°C° 0 mm 2 mps 742 mmHg 53%
    14:00 +38°C° 0 mm 2 mps 741 mmHg 47%
    15:00 +37°C° 0 mm 2 mps 741 mmHg 51%
    16:00 +36°C° 0 mm 2 mps 740 mmHg 54%
    17:00 +36°C° 0 mm 2 mps 739 mmHg 58%
    18:00 +34°C° 0 mm 2 mps 740 mmHg 65%
    19:00 +31°C° 0 mm 2 mps 740 mmHg 72%
    20:00 +29°C° 0 mm 1 mps 741 mmHg 79%
    21:00 +29°C° 0 mm 1 mps 741 mmHg 80%
    22:00 +28°C° 0 mm 1 mps 742 mmHg 81%
    23:00 +28°C° 0 mm 1 mps 743 mmHg 82%
    Show more